Terminal Aerodrome Forecast
Issued by NWS Duluth, MN

Home | Current Version | Previous Version | Text Only | Print | Product List | Glossary On
Versions: 1 2 3 4 5 6 7 8 9 10 11 12 13 14 15 16 17 18 19 20 21 22 23 24 25 26 27 28
000
FTUS43 KDLH 141720
TAFDLH
TAF
KDLH 141720Z 1418/1518 18010KT 5SM -SN OVC020
     FM141900 18009KT 2SM -SN OVC020
     FM142100 18008KT 1SM -SN OVC020
     FM150200 VRB03KT 2SM -SN BKN025 OVC035
     FM150500 02004KT 4SM -SN SCT025 OVC035
     FM150900 35009KT 6SM -SN BKN025 OVC035
     FM151400 34012G20KT 6SM -SN OVC030=

USA.gov is the U.S. government's official web portal to all federal, state and local government web resources and services.